Theta_e
339 339 335 333 332 331 331 328 329 322 320 319 321 322 325 325 333 336 338 339 340 344 345 347 348 349 350 349 348 348 352 351 350 347 347 348 352 347 347 348 348 347 349
325 326 333 333 331 332 332 332 329 326 325 325 329 327 328 328 328 331 334 336 337 336 339 342 345 346 348 349 350 348 348 347 348 347 346 347 347 345 345 345 343 347 349
328 331 332 332 332 332 332 329 329 328 328 332 332 332 332 332 331 332 333 334 335 339 340 341 343 346 347 346 346 347 348 348 349 350 348 346 345 344 342 345 344 344 347
320 330 330 328 325 326 329 331 330 330 332 332 332 333 333 333 334 333 332 331 330 330 330 327 334 341 342 345 345 345 346 347 347 348 347 347 349 349 344 347 347 349 350
319 327 329 318 321 326 326 319 320 325 330 331 331 332 332 332 333 333 329 325 324 323 323 322 323 336 339 340 341 339 340 344 346 347 347 346 346 346 346 345 346 347 348
317 320 321 324 324 328 318 318 321 323 327 328 327 330 329 331 329 327 327 326 325 326 331 330 328 335 334 337 339 345 345 344 343 343 343 345 344 344 344 345 346 347 347
316 319 321 322 325 321 324 319 323 327 327 327 329 331 331 331 329 328 327 328 327 331 332 332 333 333 334 336 336 340 340 341 342 341 341 341 340 340 343 343 346 346 345
317 321 324 316 315 318 320 325 326 327 328 329 330 329 330 329 329 329 329 328 330 332 333 334 334 334 334 337 337 334 337 338 339 341 341 342 339 339 340 340 340 340 340
321 325 320 314 320 322 327 325 326 326 325 328 328 328 329 328 326 326 326 327 329 329 330 333 333 334 334 333 334 332 330 331 338 338 340 339 339 336 333 332 331 331 335
327 321 312 313 315 320 322 324 326 327 329 326 327 327 327 328 327 325 325 324 324 327 329 332 333 333 332 333 332 331 331 332 332 334 337 336 333 335 337 338 338 340 341
318 311 310 313 314 322 326 323 323 323 324 325 324 324 326 325 325 324 324 324 322 323 327 329 330 331 330 331 332 332 332 332 331 331 334 336 336 336 338 338 337 339 337
311 312 317 318 312 318 320 316 318 320 321 325 325 325 325 324 323 323 322 322 319 321 324 326 328 329 330 330 331 331 330 330 333 335 335 334 335 335 335 335 333 332 333
316 321 326 326 321 317 315 322 325 324 321 322 322 322 321 320 321 321 319 316 318 321 323 324 327 328 329 329 330 330 329 330 330 331 330 329 329 329 329 329 330 330 331
315 321 323 324 323 321 322 323 325 323 319 314 316 318 315 317 318 315 311 313 318 320 321 324 324 327 328 327 327 326 327 327 327 326 326 326 326 328 328 328 329 329 329
321 323 323 322 320 320 320 321 321 320 318 315 309 304 303 305 308 306 305 311 315 319 321 322 323 322 323 323 323 322 321 321 322 321 321 323 324 324 325 324 324 325 325
321 321 322 320 316 317 318 317 317 317 316 315 313 312 308 304 303 303 303 309 312 317 318 319 319 319 320 318 317 317 317 316 314 315 316 315 314 314 314 315 315 316 316
318 320 320 317 317 317 316 317 315 316 315 314 314 313 312 309 304 304 305 313 314 313 315 314 314 314 315 314 313 313 313 313 312 313 313 313 312 312 312 312 312 312 312
319 320 317 314 318 318 317 316 315 314 315 315 316 314 312 311 309 310 307 313 314 314 313 313 313 313 313 313 313 313 312 312 310 310 311 311 311 310 311 311 310 310 310
321 320 319 320 320 319 318 317 316 315 316 316 316 315 313 312 308 313 313 313 313 313 313 313 313 313 313 313 312 312 312 312 312 311 311 311 310 310 309 309 309 308 308
320 319 317 318 318 315 316 318 317 317 316 316 316 316 314 313 311 313 314 313 313 313 313 313 312 312 312 312 312 312 312 311 311 311 311 310 309 308 307 307 307 307 306
319 318 318 318 317 317 316 316 318 317 316 316 316 316 315 314 313 310 313 313 313 313 312 312 312 311 311 311 311 311 311 311 311 310 310 309 308 306 307 307 307 306 306
319 318 318 318 318 318 319 318 317 317 317 316 316 316 315 314 314 313 313 313 312 312 311 311 311 310 310 310 311 311 311 311 310 310 310 309 306 305 306 305 305 306 305
322 321 320 319 319 319 319 319 318 318 317 317 317 317 316 315 315 315 314 314 314 313 313 312 312 311 311 310 310 310 310 310 310 310 310 308 305 304 303 304 305 305 305
322 321 321 322 321 320 320 320 320 319 319 318 317 316 316 315 314 315 315 314 314 314 314 314 313 313 312 312 312 312 311 310 309 309 307 306 305 302 302 303 303 305 306
324 323 322 321 321 321 321 320 320 320 319 319 319 318 317 315 315 315 314 314 314 314 314 314 314 314 313 313 313 313 313 312 311 310 308 304 302 302 302 303 304 305 307
324 324 324 323 323 322 323 322 321 320 321 320 320 319 318 316 315 314 315 314 315 315 315 315 314 313 313 313 313 313 313 312 311 309 308 304 301 303 304 305 306 306 306
Wind_Speed
5 5 5 5 5 5 10 10 11 12 12 12 13 14 14 13 10 13 16 17 15 17 16 17 18 18 20 22 24 24 25 24 25 28 23 18 20 21 14 14 16 19 26
1 3 2 3 5 4 8 8 10 11 11 10 11 11 11 11 12 12 13 13 15 16 18 18 17 18 19 20 21 23 24 27 28 31 28 24 24 21 21 20 20 22 23
3 1 5 0 2 4 8 9 10 10 10 8 10 11 12 13 12 10 10 11 14 16 17 18 15 15 18 18 20 21 22 23 24 26 30 29 28 27 19 20 20 24 23
1 1 5 5 5 6 8 9 8 7 8 9 9 9 9 9 12 11 14 16 18 20 21 20 20 19 19 20 20 19 20 20 21 25 26 26 23 24 20 20 24 26 25
4 1 8 9 9 8 10 11 9 7 4 7 7 8 8 6 12 18 19 19 18 17 16 15 15 13 19 20 20 22 21 21 20 21 23 24 26 22 19 20 26 28 28
6 4 7 8 7 10 12 10 8 7 6 7 7 7 10 9 14 14 14 16 16 14 16 16 15 14 10 18 20 18 18 20 22 23 26 24 24 24 23 21 23 23 26
8 6 7 8 6 12 9 11 10 9 10 12 13 14 13 14 16 17 16 16 15 14 15 17 17 14 18 20 21 18 18 19 21 22 24 26 26 22 22 22 22 22 24
7 7 8 11 9 11 10 11 11 11 11 11 12 13 14 14 15 15 15 15 11 11 15 15 14 15 16 18 19 21 19 17 15 16 17 17 15 15 16 16 18 22 24
5 7 10 10 8 8 8 10 10 11 7 5 8 10 13 17 16 16 17 16 12 10 9 13 15 14 16 18 19 16 16 15 14 16 16 11 13 12 12 14 15 15 16
6 10 10 11 8 7 8 9 11 12 9 6 10 10 12 18 21 22 21 20 18 16 9 10 17 14 13 13 12 11 12 13 13 11 8 9 9 10 12 13 11 12 15
10 11 11 9 7 8 9 10 11 10 10 8 10 12 11 14 18 23 23 24 21 19 13 12 13 15 13 10 10 11 10 10 7 7 7 13 3 9 2 3 8 12 14
9 9 9 10 9 7 10 12 10 13 11 13 15 14 11 14 18 23 26 23 18 16 15 17 15 13 12 10 11 10 9 8 7 8 10 11 11 7 7 9 12 14 13
8 7 6 11 10 10 10 9 8 9 9 10 9 10 9 11 19 22 24 18 14 10 13 15 13 13 13 8 12 14 12 10 9 8 12 14 15 17 18 17 15 15 14
7 7 8 7 8 11 8 8 7 11 9 9 9 10 10 8 17 20 17 15 13 12 9 7 12 8 8 12 13 15 13 10 8 10 10 11 10 10 10 12 15 15 17
5 6 7 6 10 9 9 6 9 13 14 15 14 13 12 12 13 15 15 12 11 9 6 7 11 11 9 8 8 10 10 9 9 10 12 11 10 11 11 12 13 15 15
6 6 8 7 8 9 9 10 12 13 13 14 14 14 14 13 12 12 11 9 11 9 8 10 10 9 11 13 12 11 11 13 15 14 15 16 16 16 16 13 14 15 17
7 5 8 9 7 9 9 10 11 14 13 14 13 13 17 14 11 10 7 8 8 11 9 10 11 12 9 11 10 10 7 10 9 7 8 11 11 11 12 14 14 15 18
9 10 11 9 8 9 9 10 11 11 12 14 13 14 15 14 12 12 8 5 9 9 8 8 8 8 8 8 8 8 12 9 14 12 10 12 13 14 15 15 17 20 23
10 9 10 10 10 11 12 15 9 11 11 11 13 16 11 15 13 10 9 9 7 6 8 7 8 9 9 10 9 8 10 10 13 15 13 14 14 15 16 17 18 20 22
12 11 10 13 13 13 13 13 13 12 13 12 12 12 12 14 18 11 10 8 10 8 9 8 9 9 8 9 11 12 11 11 12 13 14 17 19 21 22 22 22 24 26
11 11 14 13 12 13 14 15 14 13 14 14 14 15 16 17 19 11 9 10 11 9 11 11 11 9 9 10 12 13 11 13 13 15 15 17 20 24 24 26 27 27 29
12 12 12 14 12 14 15 14 15 15 15 15 15 17 17 14 15 6 10 12 10 12 12 11 11 10 11 11 14 13 13 14 15 16 18 22 29 23 24 27 26 27 29
15 15 15 17 17 16 17 18 17 16 15 15 15 16 19 15 11 12 13 12 13 12 12 12 12 12 10 13 15 14 15 16 17 20 24 30 33 33 33 27 28 31 30
19 19 20 20 21 20 20 20 19 19 18 18 17 18 18 18 18 16 15 15 15 13 13 13 14 14 14 15 15 16 16 20 23 26 30 34 37 36 34 36 29 27 31
23 23 23 23 24 24 25 25 22 21 22 24 23 19 16 16 17 16 16 16 15 16 15 15 15 14 15 17 19 21 21 25 28 31 33 34 36 35 34 27 28 30 31
25 26 29 30 31 30 28 29 29 27 26 23 22 19 15 16 18 19 17 17 16 15 15 14 15 16 16 17 19 22 24 28 32 33 36 37 35 34 28 24 29 30 32
Wind_Direction
190 215 237 255 272 342 291 304 296 302 304 306 302 297 298 299 289 272 271 278 285 285 290 292 291 282 276 265 262 263 263 262 265 281 274 270 278 282 284 285 271 274 273
343 54 345 330 2 300 311 308 319 323 326 328 326 321 312 302 295 288 283 285 284 283 287 288 297 297 290 282 272 265 263 264 267 269 274 268 260 270 274 273 268 270 274
76 324 282 354 306 333 307 322 323 327 335 343 334 338 345 340 334 320 312 294 276 271 272 267 277 292 295 290 285 277 272 267 265 266 272 273 274 273 271 264 271 271 278
43 358 306 304 315 319 325 317 320 336 354 343 344 349 336 343 307 292 289 287 289 284 283 283 265 269 282 302 291 290 282 276 270 267 272 276 275 282 272 263 264 266 274
334 20 294 319 325 333 305 317 326 332 349 327 331 345 324 358 300 300 307 312 314 309 301 291 280 270 280 286 297 301 292 280 275 274 277 278 280 279 276 275 264 266 268
323 313 315 321 332 305 321 329 333 339 341 327 328 312 307 310 314 325 329 331 333 330 335 328 304 272 316 287 294 277 281 284 278 277 277 279 280 284 282 273 270 267 273
312 311 311 308 315 312 332 333 349 356 346 353 357 350 349 329 326 335 340 341 348 3 336 326 319 305 277 286 284 292 290 283 277 279 274 273 281 280 280 274 271 273 274
317 311 304 309 312 313 329 345 350 354 351 357 349 343 340 337 339 350 351 347 359 342 332 323 310 312 299 292 297 289 293 296 304 288 277 277 282 285 281 279 277 278 277
299 288 294 308 313 325 332 345 351 328 332 351 321 332 325 328 352 356 354 352 341 330 335 340 320 310 295 292 304 302 297 294 280 286 288 275 296 300 296 289 289 290 294
287 286 297 306 313 324 343 348 329 326 330 339 344 344 337 340 341 339 340 342 342 345 358 335 330 325 317 312 314 311 307 306 307 305 293 305 311 306 300 286 296 276 272
287 295 302 306 313 358 324 313 313 317 341 4 352 350 350 336 323 326 330 336 330 334 342 325 317 326 327 324 319 322 323 320 319 317 321 320 33 19 314 287 274 288 299
288 298 308 313 316 288 284 301 336 357 2 354 338 343 347 326 313 317 323 323 318 322 324 315 315 315 312 315 305 311 329 329 328 321 290 295 300 301 316 313 316 320 320
278 290 296 305 318 334 343 355 352 328 328 323 322 322 311 333 311 312 315 320 318 316 315 328 333 324 325 320 314 316 314 298 299 295 290 293 298 301 302 311 300 293 289
275 280 287 298 316 325 325 312 299 299 311 323 315 302 304 302 295 309 327 336 341 343 341 329 343 329 324 314 312 312 324 331 343 327 326 319 323 317 319 309 306 301 297
288 285 283 296 293 304 315 308 289 301 321 335 335 329 320 318 317 328 340 343 346 345 350 3 336 335 334 337 344 353 354 343 330 327 330 324 316 314 303 303 307 308 312
255 286 285 262 279 286 283 297 302 300 311 327 337 344 342 333 329 336 345 2 15 16 19 354 340 348 359 355 8 7 5 350 4 16 356 359 360 1 352 348 338 332 325
256 257 277 271 286 282 288 292 297 305 309 319 320 333 341 341 342 350 10 32 23 29 24 346 359 4 5 4 8 1 357 358 334 339 6 354 342 338 343 345 330 332 330
249 253 263 266 270 279 286 289 291 290 299 312 314 320 326 341 358 11 7 16 13 358 5 338 346 348 340 333 339 344 338 350 344 349 359 334 331 336 339 333 334 330 327
258 257 268 279 277 274 273 298 280 286 289 297 301 313 312 330 341 347 352 355 352 331 321 324 328 327 324 321 325 333 332 342 347 345 342 336 332 327 324 327 325 322 311
258 266 259 261 266 271 271 273 276 284 286 289 291 295 288 313 337 320 320 322 304 309 304 309 307 302 309 327 329 333 338 339 329 328 325 324 325 323 322 315 312 313 312
257 260 277 256 272 273 273 273 276 281 282 283 284 285 276 294 307 295 279 289 294 293 298 307 308 330 333 322 318 319 327 322 322 320 312 307 309 316 317 318 315 310 311
255 259 264 268 264 267 267 272 276 277 277 278 279 279 277 286 309 279 275 290 287 284 290 295 301 309 313 312 313 314 311 312 311 304 290 294 314 312 302 298 299 302 304
254 258 260 259 260 264 267 269 268 263 264 267 269 271 281 281 286 271 279 277 281 286 288 293 298 305 306 294 294 303 305 304 297 288 297 304 312 311 310 308 301 300 301
251 253 260 264 263 265 264 270 272 273 274 270 269 268 267 270 271 272 272 274 278 279 279 284 288 291 292 300 301 300 301 288 293 298 305 308 309 314 311 305 308 306 294
249 251 255 258 264 262 264 258 267 271 272 267 280 271 263 269 265 264 271 270 268 274 277 279 285 289 289 291 291 296 288 290 298 305 310 313 312 313 313 311 303 301 295
260 252 258 260 261 264 264 266 257 264 270 263 271 274 265 266 267 269 265 265 264 268 272 272 280 285 287 290 291 287 293 299 304 310 314 315 316 315 313 312 313 304 304